Regional Weather Roundup
Issued by NWS

Home | Current Version | Previous Version | Text Only | Print | Product List | Glossary Off
Versions: 1 2 3 4 5 6 7 8 9 10 11 12 13 14 15 16 17 18 19 20 21 22 23 24 25 26 27 28 29 30 31 32 33 34 35 36 37 38 39 40 41 42 43 44 45 46 47 48 49 50

000
ASUS45 KPSR 281510
RWRAZ

ARIZONA REGIONAL HOURLY WEATHER ROUNDUP
NATIONAL WEATHER SERVICE PHOENIX AZ
800 AM MST FRI NOV 28 2014

NOTE: FAIR INDICATES FEW OR NO CLOUDS BELOW 12,000 FEET WITH NO
SIGNIFICANT WEATHER AND/OR OBSTRUCTIONS TO VISIBILITY.

AZZ001>003-036-281600-
NORTHWEST ARIZONA

CITY           SKY/WX    TMP DP  RH WIND       PRES   REMARKS
BULLHEAD CITY  SUNNY     48  27  43 CALM      30.09R
KINGMAN        MOSUNNY   43  12  28 CALM      30.13S
$$

AZZ004>008-015-016-018-281600-
NORTH CENTRAL ARIZONA

CITY           SKY/WX    TMP DP  RH WIND       PRES   REMARKS
GRAND CANYON   PTSUNNY   18   4  54 CALM      30.27F
PRESCOTT       MOSUNNY   33  13  43 S3        30.22S
FLAGSTAFF      MOSUNNY   29  13  51 CALM      30.30R
PAYSON         SUNNY     52  19  28 E3        30.26S
PAGE           PTSUNNY   36  18  48 CALM      30.22S HAZE
$$

AZZ009>014-017-281600-
NORTHEAST ARIZONA

CITY           SKY/WX    TMP DP  RH WIND       PRES   REMARKS
WINSLOW        CLOUDY    28  12  51 CALM      30.26S
SAINT JOHNS    PTSUNNY   28  14  55 CALM      30.27R
SHOW LOW       MOSUNNY   46  10  23 S14       30.29R
$$

AZZ023-281600-
GREATER PHOENIX AREA

CITY           SKY/WX    TMP DP  RH WIND       PRES   REMARKS
PHOENIX        MOSUNNY   54  29  38 CALM      30.05R
GLENDALE       SUNNY     45  32  61 CALM      30.07R
LUKE AFB       SUNNY     47  30  51 N5        30.06R
DEER VALLEY    SUNNY     54  20  26 CALM      30.06R
SCOTTSDALE     SUNNY     53  27  36 CALM      30.07R
MESA-FALCON    SUNNY     61  21  21 NE12      30.06R
MESA-GATEWAY   SUNNY     45  23  42 CALM      30.08S
CHANDLER       SUNNY     45  30  57 CALM      30.07R
$$

AZZ027-028-281600-
SOUTHWEST MARICOPA COUNTY AND PINAL COUNTY

CITY           SKY/WX    TMP DP  RH WIND       PRES   REMARKS
CASA GRANDE    SUNNY     50  21  32 CALM      30.07R
GILA BEND      SUNNY     46  21  36 S5        30.02S
$$

AZZ503-504-507>509-281600-
SOUTHEAST ARIZONA

CITY           SKY/WX    TMP DP  RH WIND       PRES   REMARKS
TUCSON         SUNNY     50  22  33 SE10      30.13S
DAVIS-MONTHAN  MOSUNNY   57  21  24 SE12      30.11S
RYAN FIELD       N/A    N/A N/A N/A E8        30.11S
NOGALES        SUNNY     43  21  41 CALM      30.17R
SIERRA VISTA   SUNNY     48  20  32 CALM      30.22R
DOUGLAS        SUNNY     36  19  50 CALM      30.22R
SAFFORD        SUNNY     51  21  30 SE13      30.21R
$$

AZZ020-021-025-026-031-281600-
SOUTHWEST ARIZONA

CITY           SKY/WX    TMP DP  RH WIND       PRES   REMARKS
YUMA           SUNNY     59  23  25 NE9       29.99S
$$

CAZ031-033-041-043-047-048-061-281600-
SOUTHERN CALIFORNIA

CITY           SKY/WX    TMP DP  RH WIND       PRES   REMARKS
DOWNTOWN L.A.  SUNNY     54  33  45 CALM      29.98R
L.A. AIRPORT   MOSUNNY   57  32  38 E5        29.99R
SAN DIEGO      SUNNY     56  33  42 CALM      30.00S
BURBANK        SUNNY     51  27  39 SW3       29.99R
ONTARIO        MOSUNNY   52  30  43 NE3       30.01R
RIVERSIDE      SUNNY     52  27  38 NE5       30.01S
PALM SPRINGS   SUNNY     55  22  27 NW8       30.02R
EL CENTRO NAS  SUNNY     47  22  37 W8        29.99S
IMPERIAL       SUNNY     49  24  37 SW3       29.99S
BLYTHE         SUNNY     46  27  47 CALM      30.04R
NEEDLES        SUNNY     50  20  30 CALM      30.07S
$$

NVZ020-UTZ003-281600-
SOUTHERN NEVADA-UTAH

CITY           SKY/WX    TMP DP  RH WIND       PRES   REMARKS
LAS VEGAS      MOSUNNY   44  21  40 SW7       30.07S
SALT LAKE CITY CLOUDY    47  22  37 SE10      30.00F
$$

NMZ009-TXZ055-281600-
NEW MEXICO-WEST TEXAS

CITY           SKY/WX    TMP DP  RH WIND       PRES   REMARKS
ALBUQUERQUE    MOSUNNY   36  19  50 N9        30.29R WCI  29
EL PASO        SUNNY     42  23  46 NE5       30.25S
$$


........................KEY........................
SKY/WX - SKY CONDITION/WEATHER
TMP    - TEMPERATURE IN FAHRENHEIT
DP     - DEW POINT IN FAHRENHEIT
RH     - RELATIVE HUMIDITY IN PERCENT
WIND   - DIRECTION AND SPEED IN MILES PER HOUR (MPH)
VRB    - VARIABLE WIND DIRECTION
PRES   - MEAN SEA LEVEL PRESSURE IN INCHES OF MERCURY
         F - FALLING PRESSURE   R - RISING PRESSURE
         S - STEADY PRESSURE
VSB    - VISIBILITY IN MILES
HX     - HEAT INDEX IN FAHRENHEIT
WCI    - WIND CHILL INDEX IN FAHRENHEIT
TC     - TEMPERATURE IN CELSIUS WHICH IS ALSO KNOWN AS
         TEMPERATURE IN CENTIGRADE
AFB    - AIR FORCE BASE
         LUKE AFB IS LUKE AIR FORCE BASE
         DAVIS-MONTHAN IS DAVIS-MONTHAN AIR FORCE BASE
NAS    - NAVAL AIR STATION
         EL CENTRO NAS IS EL CENTRO NAVAL AIR STATION
N/A    - NOT AVAILABLE



USA.gov is the U.S. government's official web portal to all federal, state and local government web resources and services.